{"data":{"norad_id":64439,"intl_designator":"2025-130B","name":"STARLINK-34456","alt_names":[],"object_type":"PAYLOAD","status":"ACTIVE","operator":null,"country":"US","launch_date":"2025-06-18","launch_site_code":"AFETR","launch_vehicle":null,"mission":null,"orbit_class":"UNKNOWN","rcs_meters":null,"size_class":null,"mass_kg":null,"dimensions":null,"purposes":["comms"],"wikipedia_slug":null,"has_3d_model":false,"image_url":null,"decayed_at":null,"tle_current":{"epoch":"2026-09-20T11:11:47.994144Z","epoch_age_seconds":137277,"freshness":"FRESH","line1":"1 64439U 25130B   26263.46652771  .00025698  00000+0  76914-3 0  9993","line2":"2 64439  53.1577 259.6118 0002313  52.7386 307.3827 15.34397673 70586","mean_motion":15.34397673,"eccentricity":0.0002313,"inclination_deg":53.1577,"raan_deg":259.6118,"arg_perigee_deg":52.7386,"mean_anomaly_deg":307.3827,"bstar":0.00076914,"rev_number":7058,"period_min":93.847900406715,"perigee_km":461.12786860293,"apogee_km":464.29244449755,"semimajor_km":6840.8471565502,"source":"CELESTRAK","updated_at":"2026-09-21T09:00:35.352122Z"}}}